Theta_e
318 322 323 321 319 318 318 320 323 321 321 329 329 331 331 333 332 328 334 337 338 337 333 331 329 326 325 323 323 321 321 320 322 322 323 323 321 319 316 316 315 314 314 315
323 325 320 317 316 319 320 324 323 322 321 328 329 329 327 332 335 333 331 333 335 335 333 330 327 326 326 326 325 323 323 321 322 323 322 321 319 317 315 316 315 314 313 313
325 323 320 320 322 324 323 323 323 323 322 323 325 327 329 328 335 336 333 331 334 334 332 330 327 326 326 326 321 322 322 320 321 322 322 321 317 316 316 316 316 315 311 311
323 322 321 323 323 322 325 321 321 323 325 326 324 327 327 328 333 338 337 336 334 332 331 330 327 326 327 324 323 323 323 322 322 323 322 319 316 317 316 315 312 311 311 311
324 323 323 325 323 321 324 323 324 325 326 325 327 328 327 328 331 337 338 336 334 333 332 331 329 329 327 325 325 325 324 324 323 320 318 317 317 314 312 311 311 311 311 310
324 323 323 324 322 322 322 323 324 324 325 327 328 330 327 330 331 336 336 333 334 332 324 322 320 317 315 318 318 319 318 315 313 313 312 311 312 311 312 310 310 310 309 309
326 325 324 323 325 324 325 326 324 323 326 327 326 330 330 328 331 334 335 330 323 321 318 315 313 312 313 312 311 311 310 309 310 311 311 311 311 311 310 309 308 308 308 308
329 328 326 326 325 325 325 325 325 326 327 326 325 330 330 334 335 334 324 320 318 316 315 314 313 310 309 308 307 307 307 307 308 308 309 309 309 308 307 307 307 308 308 308
329 329 323 326 325 324 325 327 321 328 325 328 327 330 325 334 336 329 322 320 317 315 313 311 309 309 308 307 306 306 306 306 307 307 307 308 307 307 307 307 307 307 307 307
326 328 324 325 325 325 326 323 330 329 333 331 328 329 330 331 334 326 323 320 316 313 311 311 310 308 306 306 306 306 305 305 305 306 306 306 307 307 307 307 308 308 308 308
326 327 326 325 327 328 327 327 328 329 329 332 332 329 326 326 328 327 320 317 314 312 312 312 310 307 306 306 306 305 305 305 305 306 306 307 307 307 308 308 308 308 308 308
326 329 329 326 320 321 326 327 328 326 327 329 330 330 319 319 321 320 318 315 313 313 314 310 308 308 307 306 306 306 305 305 306 306 307 307 307 308 308 308 308 308 308 309
326 327 330 328 324 323 325 327 327 327 326 330 329 325 318 317 318 317 316 313 314 314 310 308 308 307 305 305 305 305 305 306 306 306 307 307 307 308 308 308 308 309 309 309
325 324 329 329 327 322 326 327 325 327 330 327 325 327 323 319 317 316 314 314 314 310 310 310 309 307 306 305 305 305 306 306 306 307 307 307 308 308 308 308 308 308 309 309
328 331 324 324 324 326 327 326 324 325 324 328 326 326 322 319 318 317 315 314 312 313 312 310 308 307 306 305 306 306 307 306 306 307 307 308 308 307 308 308 308 308 308 308
325 329 329 329 325 325 325 322 322 321 321 321 321 323 319 318 317 316 316 315 316 313 310 308 307 306 305 305 306 306 306 306 306 306 307 307 307 307 307 306 306 307 308 308
327 330 329 327 324 324 326 323 322 322 322 321 324 321 319 319 319 318 316 315 312 310 308 307 306 305 305 306 305 306 305 305 306 306 306 306 307 307 306 305 305 306 306 307
325 326 325 328 326 327 325 321 321 323 322 321 321 321 321 321 319 315 311 312 310 309 307 306 306 305 305 305 305 305 305 305 306 306 306 306 306 307 305 305 305 305 304 304
321 325 330 332 330 327 326 326 325 326 325 320 320 320 319 318 316 314 310 308 308 306 305 305 305 305 305 305 305 305 306 305 305 305 305 305 306 305 304 303 303 302 302 302
326 324 329 329 332 334 326 324 322 324 326 321 320 319 317 316 316 315 310 307 306 305 305 305 305 305 306 306 305 306 305 304 304 305 305 305 304 303 302 301 301 301 302 302
330 330 331 326 327 327 324 324 322 326 323 320 317 315 314 315 312 310 308 307 305 305 305 305 305 306 306 305 305 305 304 304 304 305 304 304 302 301 300 300 299 300 301 301
329 330 330 330 330 329 320 321 323 320 316 315 314 312 311 310 308 308 306 306 305 305 305 305 305 306 306 305 305 304 304 304 304 304 304 304 301 301 300 300 299 299 298 298
329 328 329 328 326 320 317 319 315 315 316 312 311 309 308 307 306 304 305 305 305 305 306 305 305 306 305 304 305 305 305 304 304 303 303 302 302 301 300 300 300 298 298 298
323 320 324 322 320 318 316 313 312 312 310 309 308 307 306 305 305 306 305 306 306 306 306 306 305 305 304 304 304 305 304 305 304 302 302 301 300 301 300 299 299 299 298 298
320 320 321 322 320 316 314 313 311 309 308 307 306 306 306 305 305 305 307 306 306 306 306 305 304 303 304 304 304 302 302 301 301 301 301 301 300 300 300 299 299 299 299 299
318 321 323 322 319 318 317 312 310 309 308 306 306 306 305 305 306 305 306 306 307 306 305 304 304 304 304 304 302 302 301 300 300 301 301 300 300 300 300 300 300 300 300 299
Wind_Speed
3 4 4 2 1 2 3 2 2 2 5 3 5 7 12 9 11 7 2 7 8 10 13 16 19 22 22 23 20 17 14 14 11 12 13 16 26 17 13 8 10 11 12 11
1 10 4 3 4 4 4 2 5 1 5 2 2 6 5 13 10 9 8 6 8 11 12 18 21 19 19 19 20 20 15 5 7 13 15 16 20 15 14 11 12 12 13 13
7 4 3 4 4 3 3 5 4 4 5 2 4 3 3 5 9 11 12 6 7 9 12 15 19 17 17 18 22 13 10 5 11 16 19 19 19 15 11 11 12 10 13 15
3 5 2 6 5 4 3 3 3 4 5 9 2 7 1 6 8 12 11 9 7 10 12 15 20 18 15 17 5 4 1 8 11 15 15 15 15 11 9 10 9 13 13 14
2 4 6 7 4 2 4 5 4 4 5 4 1 4 2 4 4 7 8 7 8 9 11 13 15 12 10 6 5 8 5 7 9 11 10 10 9 7 6 9 12 14 13 13
3 2 3 4 2 3 1 4 2 1 1 4 3 3 1 2 3 2 6 7 9 12 13 15 14 13 12 10 8 6 3 4 3 2 2 4 5 8 10 13 15 17 17 14
3 2 2 3 1 1 10 10 8 3 5 5 2 4 3 1 3 1 7 9 10 11 12 11 14 13 12 12 11 8 8 8 7 6 6 7 8 10 12 15 15 15 14 12
2 2 5 5 4 6 6 3 5 8 6 11 3 4 2 3 6 10 11 10 11 11 10 11 12 11 10 10 11 10 11 10 9 8 7 7 10 12 14 13 13 12 11 12
2 0 2 2 4 4 2 2 2 2 2 5 2 1 4 4 7 8 9 10 11 10 11 10 9 10 10 12 13 14 13 11 11 13 13 13 13 13 12 12 10 11 12 12
2 3 3 3 2 8 4 2 2 2 5 9 4 5 6 7 8 7 7 9 10 10 10 9 9 11 11 12 11 13 14 13 12 12 11 10 9 10 11 12 13 13 13 13
2 1 3 2 5 5 2 3 4 1 3 5 7 5 3 6 7 8 8 10 10 8 6 7 9 9 12 14 15 15 13 12 10 9 9 10 11 11 11 12 12 12 12 11
2 1 3 4 3 2 2 2 2 3 4 4 4 7 9 7 5 10 11 9 7 7 6 5 7 17 15 15 14 12 10 8 8 9 11 11 10 11 11 13 12 11 12 11
3 1 3 2 3 2 3 1 3 1 1 8 9 5 7 8 9 9 11 7 5 2 3 11 12 13 14 14 12 11 8 9 10 11 11 10 10 10 11 11 10 10 10 9
3 2 3 6 5 2 7 8 3 4 5 9 9 13 6 5 7 8 6 4 1 4 6 6 9 12 13 12 10 10 10 11 12 12 10 9 10 10 11 10 10 11 10 10
0 3 4 5 3 4 7 5 4 2 3 3 8 7 5 2 4 4 4 1 4 5 4 7 9 12 12 9 9 11 12 13 12 11 10 11 11 10 10 11 11 12 11 8
1 3 3 4 2 2 3 3 2 3 0 1 1 3 3 2 5 5 1 4 6 5 6 9 12 12 9 11 12 13 13 13 12 11 11 11 10 11 11 12 12 12 11 9
2 4 4 8 1 4 3 4 4 3 3 3 3 2 2 1 1 2 5 5 3 5 8 10 11 9 10 11 12 13 13 12 12 12 12 12 12 9 9 11 13 13 12 10
3 3 1 5 3 6 4 5 3 2 1 3 3 3 5 5 3 3 4 3 4 7 10 10 9 10 11 12 12 13 13 11 11 13 14 13 12 8 9 11 13 12 11 11
2 3 2 2 2 1 4 3 4 4 1 2 4 5 5 5 3 4 5 5 6 10 10 8 8 11 12 12 13 13 12 12 12 14 15 13 10 8 9 11 12 12 12 11
5 4 2 2 1 2 4 4 3 3 0 1 4 5 7 7 7 4 4 7 10 9 7 7 10 11 12 14 12 14 13 11 14 12 12 9 6 8 9 11 10 11 11 9
3 3 5 3 1 3 2 2 1 2 3 3 4 5 6 5 4 3 5 7 8 7 7 9 10 11 12 13 12 14 15 13 13 12 9 7 8 10 12 11 12 11 12 10
1 1 1 2 3 1 3 1 2 2 3 4 5 5 4 3 2 4 5 6 6 6 8 10 12 14 12 11 12 13 15 16 13 11 8 8 10 11 12 10 11 11 13 13
1 2 2 2 2 1 2 2 3 1 4 4 4 4 3 3 4 3 2 3 4 7 10 11 12 14 13 12 11 13 16 14 11 10 10 11 11 12 11 10 11 13 14 15
2 2 2 2 2 1 4 5 5 7 8 7 6 5 5 5 4 4 3 4 7 10 12 12 12 13 13 12 12 13 14 12 10 10 11 11 10 11 11 11 11 10 14 14
1 4 2 2 3 3 4 4 8 8 9 7 7 5 5 4 5 3 4 7 10 11 11 9 11 12 13 11 13 15 15 14 11 10 10 10 11 11 12 10 11 11 12 14
4 2 2 2 1 2 3 9 8 8 7 5 5 6 5 4 3 2 4 7 9 11 11 12 12 14 15 14 14 15 14 15 15 12 11 12 13 13 13 11 13 17 19 16
Wind_Direction
14 65 40 323 215 101 127 101 345 334 23 84 75 71 37 27 35 19 234 192 145 144 133 143 132 127 128 135 132 116 103 87 23 324 311 298 299 284 264 276 308 321 323 319
151 46 8 108 140 129 133 84 26 258 25 231 132 57 46 36 27 2 324 252 161 135 135 136 129 127 133 127 115 101 114 125 292 274 270 282 286 299 296 316 320 319 317 326
59 21 63 140 115 71 68 28 358 326 342 85 315 229 54 32 45 33 30 58 80 122 129 135 132 129 129 131 124 83 43 188 224 251 268 277 288 282 301 318 323 320 325 331
49 347 79 71 62 1 34 342 293 304 306 306 349 307 36 9 35 43 37 44 86 118 132 143 145 136 135 137 79 332 338 271 244 255 268 279 283 294 309 318 312 318 326 329
39 40 60 64 35 342 18 16 357 323 291 302 111 267 89 358 17 36 43 60 86 109 129 132 131 115 109 129 317 288 277 239 245 277 284 283 285 298 316 320 320 319 317 324
71 18 30 3 72 62 292 278 296 118 256 260 48 322 289 359 355 33 74 84 104 105 88 81 70 68 54 53 54 40 65 70 57 12 341 319 334 339 329 323 319 318 320 324
353 30 354 7 7 193 351 330 316 294 293 298 54 253 339 340 355 72 125 82 69 80 73 71 72 69 71 67 64 59 41 24 2 357 345 334 342 333 325 320 318 324 330 331
344 203 11 357 11 317 340 322 302 304 303 307 173 240 100 34 90 99 92 92 81 78 83 88 81 72 57 39 29 25 24 9 352 347 334 341 341 329 322 319 326 326 312 310
338 284 346 43 356 329 25 340 354 280 227 270 304 172 176 144 124 117 100 94 93 100 98 88 74 49 33 25 16 12 8 357 351 349 349 343 342 336 328 323 306 297 302 302
123 288 40 351 167 59 36 85 293 353 298 300 286 291 295 216 197 154 128 114 114 112 93 67 41 26 11 9 355 7 4 354 348 346 342 336 329 319 314 310 303 297 298 301
106 328 351 312 38 4 62 49 42 321 284 295 306 303 16 307 238 174 138 129 115 91 69 51 35 17 14 354 354 360 354 348 344 339 334 321 318 318 315 311 311 309 309 308
46 91 327 343 303 286 82 75 51 340 308 287 287 286 359 339 153 141 132 123 101 73 29 27 20 14 358 352 346 338 334 338 338 330 323 321 324 322 321 318 316 309 309 312
165 59 320 321 167 155 335 66 57 93 248 270 293 306 33 68 93 113 124 116 103 68 26 20 9 353 345 338 332 334 344 340 334 327 326 329 330 330 329 327 325 320 317 316
108 137 244 288 311 325 296 303 328 266 277 304 285 315 19 67 103 118 114 110 213 54 23 353 344 340 333 329 331 339 340 335 329 327 323 325 333 332 331 331 332 337 337 338
31 242 205 251 256 254 279 312 333 240 331 257 340 339 10 88 122 108 124 11 353 337 339 350 339 334 333 341 345 342 340 337 332 325 326 332 332 331 335 345 346 347 353 360
47 251 206 261 202 271 254 33 121 103 49 236 342 60 13 75 110 98 316 283 302 359 352 341 336 340 354 348 342 337 336 338 338 334 331 330 326 341 345 346 347 348 355 349
253 188 194 273 311 301 204 78 78 86 43 316 357 40 138 164 318 297 296 326 14 1 342 341 347 351 338 334 331 329 331 333 336 340 340 332 329 334 345 347 350 354 357 356
225 187 212 284 292 273 70 65 69 94 103 122 76 41 350 359 31 41 26 36 13 347 345 351 350 343 337 331 332 328 329 326 328 333 332 335 327 336 352 357 1 1 358 358
279 167 142 266 240 99 183 6 336 344 15 158 21 12 5 350 302 103 47 35 5 352 347 344 334 324 323 328 331 333 339 342 346 347 343 336 334 343 1 8 6 354 350 348
76 77 76 107 73 287 251 209 349 172 228 180 355 5 360 344 321 32 10 4 359 360 359 333 328 326 325 336 332 325 334 341 348 350 343 346 5 11 17 15 5 359 355 349
8 34 77 112 201 267 281 186 319 266 33 49 39 33 8 350 355 357 353 360 356 345 333 329 326 325 335 335 334 344 354 349 347 344 349 12 12 19 22 14 9 2 356 357
348 155 200 194 224 92 37 165 275 60 75 72 60 37 32 38 31 1 358 338 336 334 333 334 331 333 341 346 341 354 356 352 351 2 26 20 23 22 10 7 7 10 4 5
272 288 349 270 44 55 28 38 85 69 105 77 68 59 60 56 33 22 23 3 340 337 337 337 335 332 358 357 355 357 1 359 4 25 26 22 13 8 11 12 12 14 14 15
188 176 253 243 143 133 119 106 88 83 96 87 78 77 81 96 87 79 54 12 353 349 345 342 350 358 0 6 13 12 9 10 16 20 22 21 20 14 17 21 20 16 12 19
28 172 162 254 184 156 164 120 118 105 99 88 76 94 99 105 88 58 23 360 353 345 353 1 5 7 12 13 17 20 20 21 21 20 20 21 17 25 32 37 28 28 24 29
182 171 226 21 72 69 121 142 137 119 108 99 121 122 102 112 92 5 4 1 352 1 11 17 25 28 18 23 27 28 30 36 30 39 37 32 33 40 48 43 44 50 51 71